Temperature
19 19 19 18 18 18 18 18 18 19 19 19 19 19 19 18 18 17 17 17 17 18 18 18 18 18 18 18 18 18 18 18 17 17 17 18 18 18 18 18 17 17 17
19 19 19 19 18 18 18 19 19 19 19 19 18 18 18 18 18 17 17 17 17 17 17 17 17 17 18 18 17 17 17 17 17 17 17 17 17 17 17 17 17 17 17
19 19 19 19 19 19 19 19 19 19 19 18 18 18 18 18 18 17 17 17 17 17 17 17 17 17 17 18 17 17 17 17 17 17 17 17 17 17 17 17 17 17 17
19 19 19 19 19 19 19 19 19 18 18 18 18 18 18 18 18 18 18 17 17 17 17 17 17 17 17 17 17 17 17 17 17 17 17 17 17 17 17 17 17 17 16
19 19 19 19 19 19 18 18 18 18 18 18 18 18 18 18 18 18 18 18 17 17 17 17 17 17 17 17 17 17 17 17 17 17 17 17 17 17 17 17 16 16 16
19 19 19 18 18 18 18 18 18 18 18 18 18 18 18 18 18 18 18 18 18 17 17 17 17 17 17 17 17 17 17 17 17 17 16 16 17 17 17 16 16 16 16
19 18 18 18 18 18 18 18 17 17 17 17 17 17 17 18 18 18 18 18 18 18 17 17 17 17 17 17 17 17 17 17 16 16 16 16 16 16 16 16 16 16 16
18 18 18 18 18 17 17 17 17 17 17 17 17 17 17 17 18 18 18 18 18 18 18 17 17 17 17 17 17 17 17 17 16 16 16 16 16 16 16 16 16 16 16
18 18 17 17 17 17 17 17 17 17 17 17 17 16 16 17 17 18 17 17 18 18 17 17 17 17 17 16 17 17 17 16 16 16 16 16 16 16 15 15 15 15 16
17 17 17 17 17 17 17 17 17 16 16 17 17 16 16 17 16 17 17 17 17 17 17 17 17 17 17 16 17 17 16 16 16 16 16 16 16 16 16 16 15 16 16
17 17 17 17 17 17 16 16 16 16 16 16 16 16 16 16 16 16 16 17 17 17 17 17 17 17 17 16 16 16 16 16 16 16 16 16 16 16 16 16 16 16 16
16 16 16 16 16 16 16 16 16 16 16 16 16 16 16 16 16 16 16 16 17 17 17 17 16 16 16 16 16 16 16 16 16 16 16 16 16 16 16 16 16 16 16
16 16 16 16 16 16 16 16 16 16 16 16 16 16 15 15 15 15 15 16 16 16 16 16 16 16 16 16 16 16 16 16 16 16 16 16 16 16 16 16 16 16 16
15 15 15 15 16 16 16 16 16 16 15 15 15 15 15 15 15 15 15 15 15 15 16 16 16 16 16 16 16 15 15 16 16 16 16 16 16 16 16 16 16 16 16
14 14 14 15 15 16 16 16 16 16 15 15 15 15 15 15 15 15 14 14 14 15 15 15 15 15 15 15 15 15 15 15 16 16 16 16 16 16 16 16 16 16 16
14 14 14 15 15 16 16 16 16 15 15 15 15 15 15 15 14 14 14 14 14 14 14 15 15 15 15 15 15 15 15 15 15 15 15 15 16 16 16 16 16 16 16
14 14 15 15 15 16 16 16 15 15 15 15 15 15 15 15 14 14 14 14 14 14 14 15 15 15 15 15 15 15 15 15 15 15 15 15 15 16 16 16 16 16 16
15 15 15 16 16 16 16 16 15 15 15 15 15 15 15 15 14 14 14 14 14 14 14 14 14 15 15 14 14 14 15 15 15 15 16 16 16 16 16 16 16 15 15
15 15 15 16 16 16 16 16 15 15 15 15 15 15 15 15 14 14 14 14 14 14 14 14 14 14 14 14 14 14 14 14 15 15 15 16 16 15 15 15 15 15 15
15 15 15 15 16 16 15 15 15 15 15 15 15 15 15 15 14 14 14 14 14 14 14 14 14 14 14 14 14 14 14 14 14 14 15 15 15 15 15 15 15 15 15
15 15 15 15 15 15 15 15 15 15 15 15 15 15 15 15 15 15 14 14 14 14 14 14 14 14 14 14 14 14 14 14 14 14 14 14 15 15 15 15 15 15 15
14 14 15 15 15 15 15 15 15 15 15 15 15 15 15 15 15 15 15 15 14 14 14 14 13 13 13 13 13 13 13 13 13 14 14 14 14 14 14 14 14 15 15
13 13 13 13 14 14 14 14 15 15 15 15 15 15 15 15 15 15 15 15 14 14 14 14 13 13 13 13 13 13 13 13 13 13 13 13 13 13 13 13 14 14 14
12 12 12 12 12 13 13 13 14 14 14 14 14 14 14 14 14 14 14 14 14 14 14 14 14 13 13 13 13 13 13 13 13 12 12 13 13 13 13 13 13 13 13
11 11 11 11 11 12 12 12 13 13 13 13 13 14 14 14 14 14 14 14 14 14 14 14 14 14 14 13 13 13 12 12 12 12 12 12 12 12 12 12 12 12 12
11 11 11 11 11 11 11 12 12 12 12 13 13 13 13 13 14 14 14 14 14 14 14 14 14 14 14 13 13 13 12 12 12 12 12 12 12 12 12 12 12 12 12
Wind_Speed
5 4 6 10 10 10 7 5 6 4 1 3 4 5 5 5 8 9 9 7 5 3 1 1 2 2 1 1 2 3 4 5 6 7 8 8 7 6 5 4 3 3 2
4 3 4 5 5 7 9 6 3 4 2 3 3 4 4 5 5 9 11 8 6 4 3 2 3 3 2 2 2 3 4 5 6 8 8 7 7 6 5 5 4 3 2
6 4 4 6 3 6 8 4 2 2 3 4 2 0 2 3 5 3 8 10 9 6 5 4 4 3 3 3 3 3 4 5 6 7 7 7 6 5 5 5 4 4 2
9 5 3 4 4 5 3 3 1 1 3 2 3 3 2 3 4 0 4 9 11 10 7 6 5 5 4 4 4 5 5 5 5 5 5 5 5 5 5 4 4 4 3
8 5 3 2 4 2 2 4 2 1 1 1 1 1 2 3 2 2 4 7 11 12 12 8 7 7 6 6 6 6 7 6 5 5 6 5 4 4 4 4 4 4 4
6 6 3 2 2 3 1 1 3 2 2 1 3 2 2 2 2 3 3 2 5 11 13 12 10 8 8 8 7 6 6 6 6 5 5 5 4 3 4 4 4 4 3
4 6 4 3 1 3 2 1 1 1 1 1 2 3 3 4 5 4 3 2 2 8 11 13 12 11 10 9 8 7 6 6 6 5 5 5 4 3 3 3 3 3 3
4 4 5 4 3 2 2 2 1 2 1 2 2 1 2 4 4 3 4 3 3 3 3 7 12 13 13 12 11 10 8 6 6 5 5 5 5 4 3 2 2 2 1
4 4 4 4 4 4 4 4 4 5 5 4 4 3 3 4 2 4 4 5 4 2 3 2 5 10 13 14 13 11 10 7 6 5 6 6 6 5 3 3 2 2 3
3 4 3 3 3 3 4 5 6 5 6 5 5 4 4 4 3 2 3 3 6 5 3 1 1 2 9 13 15 15 12 9 6 5 6 7 7 6 5 4 3 3 3
3 3 2 2 2 2 4 5 6 6 5 6 5 4 3 2 4 3 2 3 2 2 2 2 2 1 4 12 15 16 14 10 7 6 6 6 7 6 6 4 3 2 2
3 3 3 2 1 1 3 4 5 4 4 5 4 4 3 3 3 3 4 4 3 3 3 2 2 2 3 8 12 18 16 13 9 7 6 6 6 6 6 4 3 3 2
2 3 2 2 1 1 2 2 2 3 4 5 5 3 2 3 2 2 3 3 3 3 2 3 4 4 6 7 11 18 16 15 12 10 9 7 6 6 5 5 4 3 3
2 2 3 3 3 2 2 2 1 4 3 4 5 4 3 3 2 3 3 3 3 3 3 4 3 4 8 10 14 19 15 17 15 14 12 11 9 8 7 6 5 4 3
1 1 3 4 4 5 4 3 3 4 2 1 1 1 2 2 2 3 3 4 4 4 5 5 3 3 5 8 12 16 14 18 19 18 16 14 12 11 10 8 7 6 5
1 2 5 7 7 7 6 4 2 1 1 1 1 2 3 3 3 3 4 4 5 5 4 4 4 2 2 3 9 12 13 17 22 21 20 18 16 14 13 11 10 9 8
4 5 7 7 7 7 7 6 4 3 3 4 5 6 6 5 4 4 4 4 4 5 5 4 3 3 2 2 3 7 8 9 15 21 22 21 19 17 16 14 13 12 11
4 6 6 6 6 5 6 7 7 5 4 5 5 3 3 3 3 3 3 4 5 5 5 5 4 3 4 3 3 5 5 8 11 18 23 22 21 20 19 17 16 15 14
6 6 5 6 5 3 4 4 6 6 7 7 6 4 3 2 3 2 3 4 4 4 4 4 4 3 3 3 3 4 5 4 6 9 19 21 21 21 20 20 20 19 18
5 6 5 4 3 1 2 2 2 3 4 5 5 6 5 3 2 1 1 1 2 3 2 3 2 2 2 2 2 3 4 4 4 3 8 13 18 21 22 22 21 21 21
7 8 8 8 8 7 9 9 7 6 5 4 4 4 3 6 7 4 2 2 2 0 1 1 1 1 1 1 3 3 3 3 3 3 3 4 7 9 14 19 22 22 22
8 9 9 10 10 10 13 13 10 7 7 6 4 3 3 7 8 6 5 3 1 1 1 0 1 1 2 2 1 1 1 1 2 2 1 3 2 4 5 9 14 20 22
9 9 9 9 9 11 16 15 14 8 7 7 6 4 2 4 8 7 7 6 4 3 2 0 1 0 1 1 2 1 1 1 2 2 2 3 2 2 2 3 5 7 14
7 7 8 8 7 10 16 16 16 8 6 6 6 4 2 1 2 2 4 5 5 6 5 2 2 3 4 3 3 1 1 0 1 0 1 2 3 2 3 5 6 3 2
6 6 6 7 7 8 14 16 16 7 6 6 4 3 4 4 5 4 2 1 2 3 5 7 7 6 6 5 3 2 1 1 1 1 1 1 2 3 2 2 4 4 4
5 4 4 5 6 6 10 15 15 7 8 7 5 5 8 7 6 6 4 3 3 2 3 3 3 3 3 3 2 0 1 1 1 1 0 0 2 2 3 2 2 3 3
Wind_Direction
198 176 170 168 185 190 179 230 234 191 128 67 34 37 60 85 103 109 128 134 136 132 141 197 186 172 165 191 226 202 183 179 177 173 169 166 163 160 157 155 150 134 105
188 157 176 156 192 172 171 220 234 123 130 93 48 50 20 36 88 129 141 147 146 140 134 139 158 167 173 193 206 200 184 182 183 180 180 182 181 182 180 179 178 170 147
176 162 190 156 193 180 179 215 187 123 125 125 154 201 95 44 331 117 140 155 152 136 127 126 132 140 143 143 149 165 170 179 186 188 192 195 196 198 194 188 187 185 178
180 170 173 155 179 173 165 120 46 103 128 168 179 185 167 152 251 53 194 156 152 143 130 121 121 124 125 122 122 131 140 155 170 179 182 184 191 192 194 193 195 197 200
178 148 133 123 158 133 139 150 184 175 140 151 143 150 276 190 193 249 252 151 147 148 140 135 130 128 128 126 123 123 127 131 133 136 139 143 156 176 195 203 209 215 221
149 122 115 116 114 116 105 109 134 97 53 28 301 247 223 249 230 244 324 66 171 155 150 153 149 140 136 134 130 129 132 133 136 139 140 144 158 184 205 213 219 220 226
126 120 130 146 125 130 148 192 117 110 53 339 313 318 310 266 256 202 199 270 253 140 160 168 166 158 149 140 135 135 139 140 143 144 145 147 156 177 198 210 215 222 232
157 150 157 156 147 136 172 220 166 160 210 238 222 241 310 317 299 260 194 195 283 165 208 180 170 166 166 154 146 135 131 135 143 146 147 148 149 157 176 197 203 198 169
164 151 149 157 178 179 195 216 216 202 210 231 230 191 190 229 270 295 233 194 220 222 213 250 186 175 157 149 146 137 133 131 136 145 145 141 139 143 148 156 154 133 117
131 140 138 145 169 186 201 218 221 215 209 224 241 232 216 194 178 284 311 243 203 199 206 235 44 65 137 141 151 150 145 140 143 151 152 148 142 135 130 135 143 136 130
90 102 102 120 154 190 215 223 228 214 204 214 230 232 240 246 222 199 253 295 288 190 184 209 160 226 150 147 152 159 158 155 154 159 162 161 156 150 143 143 152 167 175
79 81 96 106 139 216 241 242 232 214 207 219 231 224 210 213 218 201 213 240 258 256 206 191 178 192 182 160 166 167 167 169 170 173 177 176 173 169 166 169 182 195 220
114 129 126 137 186 261 279 287 279 251 222 224 227 232 233 234 212 194 209 232 239 256 237 204 203 206 208 180 168 172 177 179 182 187 190 189 191 190 190 194 204 219 242
114 145 163 181 205 229 255 254 298 281 258 241 220 214 212 237 224 207 205 209 231 250 242 237 217 206 211 199 187 184 187 190 192 197 199 201 203 205 206 210 217 224 241
93 166 212 213 219 219 225 234 209 258 241 284 337 271 223 231 237 232 223 205 197 219 239 233 228 219 206 201 193 192 193 198 201 204 205 207 210 213 215 217 219 223 232
250 219 225 223 219 207 203 211 223 276 340 239 182 268 265 240 236 229 225 225 210 208 237 233 216 212 194 177 181 199 209 207 207 207 208 209 212 216 219 221 223 225 230
238 232 235 233 222 203 191 183 198 227 242 261 224 215 224 222 218 223 227 231 227 212 228 250 222 204 176 201 184 234 239 209 207 211 212 212 213 216 220 224 227 229 231
274 259 256 249 244 203 184 174 187 202 221 253 271 263 239 204 202 224 219 227 231 224 217 238 234 215 214 219 208 238 244 223 211 215 215 216 216 218 221 225 228 231 232
296 281 271 261 244 200 185 188 191 202 217 222 225 232 253 213 197 213 215 226 232 236 220 225 242 222 224 224 226 243 254 260 255 227 213 217 220 222 225 228 230 233 234
327 333 333 330 335 45 37 342 296 250 245 244 229 209 203 208 154 148 201 221 230 233 230 229 244 245 234 223 195 224 249 252 259 258 214 216 222 226 229 231 234 235 237
10 10 10 20 27 38 28 12 346 319 289 267 262 251 178 129 109 99 84 43 20 294 214 215 240 246 232 204 214 210 235 270 274 254 242 222 214 221 228 236 239 240 239
29 28 30 35 41 36 20 16 358 330 317 306 289 268 170 154 152 151 154 151 114 37 41 147 193 243 257 222 204 193 220 287 288 306 284 271 226 231 234 229 238 237 237
38 36 34 36 43 32 17 7 356 328 302 297 300 294 259 168 165 178 189 194 201 200 194 27 6 218 106 119 129 139 187 235 267 330 9 305 322 298 300 326 325 251 236
39 40 31 28 31 30 15 4 351 319 288 282 282 282 292 174 167 147 174 195 196 187 195 195 70 79 79 71 80 107 146 230 280 304 71 305 334 333 352 9 23 25 262
35 49 31 23 22 23 15 7 359 331 331 325 322 7 38 63 59 48 25 44 121 134 136 114 102 102 98 85 67 55 53 27 320 302 77 339 336 332 332 341 4 18 11
30 57 50 33 32 19 16 15 10 1 356 347 355 50 60 65 53 38 21 33 66 77 118 137 143 158 180 171 166 157 95 69 329 321 106 108 339 352 341 323 308 319 329
Height
1548 1550 1550 1550 1551 1552 1554 1556 1556 1559 1560 1561 1562 1562 1562 1562 1561 1560 1559 1558 1557 1557 1557 1558 1558 1559 1560 1561 1562 1563 1564 1565 1567 1568 1569 1570 1571 1571 1572 1573 1573 1574 1574
1547 1549 1551 1550 1552 1553 1555 1556 1557 1558 1559 1560 1561 1561 1562 1562 1561 1560 1559 1558 1558 1557 1557 1557 1557 1558 1559 1560 1561 1562 1563 1564 1566 1567 1568 1569 1570 1571 1571 1572 1572 1572 1573
1545 1547 1549 1549 1551 1553 1554 1556 1557 1558 1558 1559 1560 1561 1561 1561 1561 1561 1559 1558 1558 1557 1557 1557 1557 1557 1558 1558 1559 1560 1562 1563 1564 1566 1567 1568 1569 1569 1570 1570 1571 1571 1571
1543 1545 1547 1548 1550 1552 1553 1554 1556 1557 1558 1558 1559 1560 1560 1560 1560 1561 1560 1558 1558 1557 1557 1557 1557 1557 1557 1558 1559 1559 1560 1562 1563 1564 1565 1566 1567 1568 1568 1569 1569 1569 1569
1541 1543 1545 1547 1548 1550 1551 1553 1554 1556 1557 1557 1558 1559 1560 1560 1560 1559 1560 1559 1558 1557 1557 1557 1557 1557 1557 1558 1558 1559 1559 1560 1562 1562 1563 1564 1565 1566 1566 1567 1567 1567 1568
1538 1540 1542 1544 1546 1548 1549 1551 1553 1554 1555 1555 1557 1558 1558 1559 1558 1559 1559 1559 1559 1557 1557 1557 1557 1557 1557 1557 1557 1558 1559 1559 1560 1561 1562 1562 1563 1564 1564 1565 1565 1565 1566
1534 1536 1538 1541 1543 1545 1547 1549 1550 1551 1552 1554 1555 1555 1556 1557 1557 1557 1557 1558 1558 1558 1557 1557 1557 1557 1557 1557 1557 1557 1558 1558 1559 1559 1560 1560 1561 1562 1562 1563 1563 1564 1564
1530 1532 1535 1537 1540 1542 1544 1546 1547 1548 1550 1551 1552 1553 1553 1555 1554 1555 1555 1556 1556 1557 1557 1557 1557 1557 1556 1556 1557 1557 1557 1558 1558 1559 1559 1559 1560 1560 1561 1561 1562 1562 1562
1527 1529 1531 1533 1536 1538 1540 1542 1544 1545 1546 1547 1549 1551 1551 1551 1551 1552 1553 1553 1554 1555 1555 1556 1557 1556 1556 1555 1556 1556 1556 1557 1557 1558 1558 1558 1559 1559 1560 1560 1561 1561 1561
1522 1525 1527 1529 1531 1534 1536 1537 1539 1541 1542 1543 1545 1547 1548 1549 1550 1549 1551 1551 1552 1552 1553 1554 1555 1555 1555 1554 1554 1555 1555 1556 1556 1557 1557 1557 1558 1558 1559 1559 1560 1560 1559
1517 1520 1523 1524 1526 1529 1531 1533 1535 1536 1538 1539 1541 1543 1544 1545 1546 1547 1548 1549 1549 1550 1550 1551 1551 1553 1553 1552 1552 1553 1554 1554 1555 1555 1556 1556 1557 1557 1557 1558 1558 1558 1557
1513 1516 1519 1521 1523 1525 1528 1530 1531 1534 1535 1536 1538 1539 1540 1541 1542 1543 1544 1545 1546 1547 1547 1547 1548 1549 1550 1550 1550 1550 1551 1552 1552 1553 1554 1555 1555 1556 1556 1556 1556 1556 1555
1509 1512 1516 1518 1521 1522 1525 1527 1530 1531 1533 1533 1534 1535 1536 1537 1538 1540 1541 1541 1542 1543 1543 1544 1544 1545 1546 1547 1547 1548 1549 1549 1550 1551 1552 1553 1553 1554 1554 1554 1554 1554 1554
1507 1510 1513 1516 1518 1520 1523 1525 1527 1529 1530 1531 1531 1532 1532 1533 1534 1536 1537 1538 1538 1538 1539 1540 1540 1541 1542 1543 1544 1545 1545 1546 1547 1548 1549 1550 1551 1551 1551 1552 1552 1552 1551
1506 1509 1511 1514 1516 1519 1521 1523 1525 1526 1528 1528 1529 1529 1529 1529 1530 1531 1532 1534 1535 1534 1535 1536 1536 1537 1538 1539 1540 1541 1542 1543 1544 1545 1546 1547 1547 1548 1548 1549 1549 1549 1549
1507 1509 1511 1514 1516 1518 1519 1521 1523 1524 1525 1526 1526 1527 1526 1527 1527 1528 1528 1529 1530 1531 1531 1531 1532 1533 1534 1535 1536 1538 1539 1540 1541 1542 1543 1544 1544 1545 1545 1546 1546 1546 1547
1509 1510 1512 1513 1515 1516 1518 1519 1521 1522 1523 1523 1524 1524 1524 1524 1524 1525 1525 1525 1526 1526 1526 1528 1529 1530 1531 1531 1533 1534 1536 1536 1537 1539 1539 1540 1541 1542 1542 1543 1543 1544 1544
1510 1511 1512 1513 1514 1515 1517 1518 1519 1520 1521 1522 1523 1523 1523 1523 1522 1522 1521 1521 1522 1522 1523 1524 1525 1526 1527 1528 1529 1530 1532 1533 1534 1534 1536 1537 1537 1538 1539 1539 1540 1540 1541
1509 1510 1510 1511 1512 1514 1515 1517 1518 1519 1519 1520 1521 1521 1521 1521 1520 1519 1519 1518 1518 1519 1519 1520 1521 1522 1523 1524 1525 1526 1528 1529 1530 1530 1531 1532 1533 1534 1535 1535 1536 1537 1537
1509 1509 1509 1509 1510 1511 1512 1514 1515 1516 1517 1518 1519 1519 1519 1519 1518 1517 1517 1516 1516 1516 1517 1517 1518 1519 1520 1521 1521 1522 1524 1525 1526 1527 1527 1528 1529 1529 1530 1530 1531 1532 1532
1508 1508 1508 1508 1508 1508 1509 1510 1512 1513 1514 1515 1516 1516 1517 1517 1516 1516 1515 1515 1514 1514 1515 1515 1515 1516 1517 1517 1518 1519 1520 1521 1522 1522 1523 1523 1523 1524 1525 1525 1526 1526 1527
1507 1507 1506 1507 1506 1507 1507 1508 1509 1510 1511 1512 1512 1513 1514 1514 1514 1514 1514 1514 1513 1513 1513 1514 1514 1514 1515 1515 1516 1516 1517 1517 1518 1519 1519 1519 1520 1519 1520 1520 1520 1521 1521
1508 1507 1506 1505 1505 1505 1505 1505 1505 1506 1507 1508 1509 1510 1511 1511 1512 1512 1513 1513 1513 1513 1514 1514 1514 1514 1514 1514 1514 1514 1515 1515 1516 1516 1516 1516 1516 1516 1516 1515 1515 1515 1516
1509 1508 1507 1506 1505 1504 1504 1503 1503 1503 1503 1504 1506 1507 1508 1509 1510 1510 1511 1512 1512 1513 1513 1513 1513 1514 1514 1514 1514 1514 1514 1514 1514 1514 1514 1513 1513 1513 1512 1512 1512 1512 1512
1511 1510 1509 1508 1506 1505 1503 1502 1501 1501 1501 1501 1502 1503 1504 1505 1506 1508 1510 1510 1511 1512 1513 1513 1513 1514 1514 1514 1514 1514 1514 1513 1513 1513 1513 1512 1512 1511 1510 1510 1509 1509 1509
1514 1512 1511 1509 1508 1506 1504 1502 1501 1500 1500 1500 1500 1500 1501 1502 1503 1505 1507 1509 1510 1511 1512 1513 1513 1514 1514 1514 1514 1514 1514 1514 1513 1513 1512 1512 1511 1510 1510 1509 1509 1508 1507